This is the latest recevied weather packets stored in our database for station/object OE3PDB-4. If no packets are shown the sender has not sent any weather packets the latest 10 day(s).
| Time | Temp. | Humidity | Pressure | Rain* | Wind** | Luminosity | Snow |
|---|---|---|---|---|---|---|---|
| 1777626609 | 15.56° C | 38% | 1027.9 hPa | 0 mm | - | - | - |
| 1777626009 | 15.56° C | 39% | 1028 hPa | 0 mm | - | - | - |
| 1777625409 | 15.56° C | 40% | 1028.1 hPa | 0 mm | - | - | - |
| 1777624809 | 14.44° C | 41% | 1028.1 hPa | 0 mm | - | - | - |
| 1777624209 | 13.89° C | 42% | 1028.2 hPa | 0 mm | - | - | - |
| 1777623609 | 13.33° C | 41% | 1028.3 hPa | 0 mm | - | - | - |
| 1777623009 | 13.33° C | 41% | 1028.3 hPa | 0 mm | - | - | - |
| 1777622409 | 13.33° C | 42% | 1028.3 hPa | 0 mm | - | - | - |
| 1777621809 | 12.78° C | 42% | 1028.4 hPa | 0 mm | - | - | - |
| 1777621209 | 12.22° C | 43% | 1028.4 hPa | 0 mm | - | - | - |
| 1777620609 | 12.22° C | 43% | 1028.5 hPa | 0 mm | - | - | - |
| 1777620009 | 11.67° C | 45% | 1028.3 hPa | 0 mm | - | - | - |
| 1777619409 | 11.11° C | 45% | 1028.4 hPa | 0 mm | - | - | - |
| 1777618809 | 10.56° C | 46% | 1028.3 hPa | 0 mm | - | - | - |
| 1777618209 | 10.56° C | 48% | 1028.3 hPa | 0 mm | - | - | - |
| 1777617609 | 10° C | 50% | 1028.3 hPa | 0 mm | - | - | - |
| 1777617010 | 9.44° C | 50% | 1028.1 hPa | 0 mm | - | - | - |
| 1777616410 | 8.33° C | 52% | 1028.3 hPa | 0 mm | - | - | - |
| 1777615810 | 7.22° C | 55% | 1028.2 hPa | 0 mm | - | - | - |
| 1777615209 | 7.22° C | 56% | 1028.1 hPa | 0 mm | - | - | - |
| 1777614610 | 6.67° C | 57% | 1028 hPa | 0 mm | - | - | - |
| 1777614010 | 5.56° C | 57% | 1028.1 hPa | 0 mm | - | - | - |
| 1777613409 | 5.56° C | 57% | 1028.3 hPa | 0 mm | - | - | - |
| 1777612810 | 5° C | 58% | 1028.5 hPa | 0 mm | - | - | - |
| 1777612210 | 5° C | 58% | 1028.3 hPa | 0 mm | - | - | - |
* Rain latest hour (hover to see other rain measurements)
** Current wind speed in m/s (hover to see current wind gust speed)